GW2924 Weather Reports


Display with metric or nautical units.
time (UTC)temp
F
wind
direction
speed
MPH
gust
MPH
rain 1hr
in
rain 24hr
in
rain mn
in
humidity
%
barometer
mb
20260901032056 70 0 0.0 0.0 0.00 0.00 0.00 87 1013.9
20260901031603 70 0 0.0 0.0 0.00 0.00 0.00 87 1013.9
20260901031056 70 0 0.0 0.0 0.00 0.00 0.00 87 1013.8
20260901030555 70 0 0.0 0.0 0.00 0.00 0.00 88 1014.0
20260901030108 70 0 0.0 0.0 0.00 0.00 0.00 88 1013.9
20260901025552 70 0 0.0 0.0 0.00 0.00 0.00 86 1013.9
20260901025053 70 0 0.0 0.0 0.00 0.00 0.00 86 1013.8
20260901024558 70 203 0.0 0.0 0.00 0.00 0.00 87 1013.8
20260901024055 71 201 0.0 0.0 0.00 0.00 0.00 87 1013.8
20260901023555 71 0 0.0 1.0 0.00 0.00 0.00 87 1013.7
20260901023105 71 0 0.0 1.0 0.00 0.00 0.00 87 1013.8
20260901022552 71 0 0.0 0.0 0.00 0.00 0.00 87 1013.8
20260901022052 71 0 0.0 0.0 0.00 0.00 0.00 87 1013.8
20260901021606 71 0 0.0 0.0 0.00 0.00 0.00 87 1013.7
20260901021055 71 201 0.0 0.0 0.00 0.00 0.00 87 1013.7
20260901020558 71 0 0.0 0.0 0.00 0.00 0.00 87 1013.6
20260901020101 71 0 0.0 0.0 0.00 0.00 0.00 87 1013.5
20260901015554 72 0 0.0 0.0 0.00 0.00 0.00 86 1013.4
20260901015055 72 0 0.0 0.0 0.00 0.00 0.00 85 1013.4
20260901014558 72 0 0.0 0.0 0.00 0.00 0.00 85 1013.5
20260901014053 73 0 0.0 0.0 0.00 0.00 0.00 84 1013.3
20260901013553 74 0 0.0 0.0 0.00 0.00 0.00 82 1013.3
20260901013111 74 0 0.0 0.0 0.00 0.00 0.00 82 1013.1
20260901012556 75 0 0.0 1.0 0.00 0.00 0.00 82 1013.2
20260901012052 75 0 0.0 2.0 0.00 0.00 0.00 81 1013.1
20260901011604 76 193 0.0 2.0 0.00 0.00 0.00 79 1013.1
20260901011052 76 0 0.0 0.0 0.00 0.00 0.00 79 1013.0
20260901010552 76 0 0.0 1.0 0.00 0.00 0.00 78 1012.9
20260901010058 77 0 0.0 1.0 0.00 0.00 0.00 78 1012.9
20260901005556 77 0 0.0 0.0 0.00 0.00 0.00 78 1012.9
20260901005053 78 0 0.0 1.0 0.00 0.00 0.00 78 1012.9
20260901004605 78 0 0.0 3.0 0.00 0.00 0.00 78 1012.9
20260901004055 79 213 0.0 3.0 0.00 0.00 0.00 77 1012.8
20260901003555 80 244 1.0 3.0 0.00 0.00 0.00 76 1012.8
20260901003059 80 0 0.0 2.0 0.00 0.00 0.00 75 1012.7
20260901002556 80 211 0.0 2.0 0.00 0.00 0.00 74 1012.7
20260901002055 81 200 1.0 2.0 0.00 0.00 0.00 73 1012.7
20260901001603 81 178 0.0 1.0 0.00 0.00 0.00 71 1012.8
20260901001055 82 0 0.0 0.0 0.00 0.00 0.00 69 1012.7
20260901000552 83 0 0.0 0.0 0.00 0.00 0.00 67 1012.7
20260901000103 84 0 0.0 0.0 0.00 0.00 0.00 65 1012.6
20260831235553 85 0 0.0 0.0 0.00 0.00 0.00 64 1012.6
20260831235055 86 0 0.0 0.0 0.00 0.00 0.00 63 1012.5
20260831234608 87 0 0.0 0.0 0.00 0.00 0.00 61 1012.5
20260831234053 87 0 0.0 1.0 0.00 0.00 0.00 60 1012.5
20260831233552 88 0 0.0 1.0 0.00 0.00 0.00 60 1012.5
20260831233105 88 0 0.0 2.0 0.00 0.00 0.00 63 1012.6
20260831232552 88 237 0.0 2.0 0.00 0.00 0.00 62 1012.4
20260831232052 90 243 1.0 2.0 0.00 0.00 0.00 59 1012.3
20260831231604 92 150 0.0 1.0 0.00 0.00 0.00 57 1012.3
20260831231053 91 0 0.0 0.0 0.00 0.00 0.00 59 1012.3
20260831230551 90 0 0.0 2.0 0.00 0.00 0.00 60 1012.4
20260831230059 90 0 0.0 2.0 0.00 0.00 0.00 59 1012.4
20260831225554 90 224 0.0 2.0 0.00 0.00 0.00 58 1012.3
20260831225052 90 0 0.0 1.0 0.00 0.00 0.00 59 1012.1
20260831224606 91 0 0.0 1.0 0.00 0.00 0.00 58 1012.2
20260831224051 91 0 0.0 1.0 0.00 0.00 0.00 57 1012.0
20260831223555 91 0 0.0 1.0 0.00 0.00 0.00 60 1012.0
20260831223103 91 0 0.0 1.0 0.00 0.00 0.00 61 1012.0
20260831222553 90 0 0.0 3.0 0.00 0.00 0.00 61 1012.0
20260831222053 91 0 0.0 3.0 0.00 0.00 0.00 63 1011.9
20260831221634 91 0 0.0 3.0 0.00 0.00 0.00 60 1011.9
20260831221055 91 234 1.0 3.0 0.00 0.00 0.00 61 1012.1
20260831220555 90 303 1.0 6.0 0.00 0.00 0.00 60 1012.1
20260831215553 91 237 0.0 2.0 0.00 0.00 0.00 61 1012.1
20260831215054 90 235 0.0 3.0 0.00 0.00 0.00 62 1012.1
20260831214606 90 255 0.0 3.0 0.00 0.00 0.00 64 1012.1
20260831214054 90 237 1.0 3.0 0.00 0.00 0.00 62 1012.0
20260831213553 90 285 0.0 3.0 0.00 0.00 0.00 64 1011.9
20260831213103 90 284 1.0 3.0 0.00 0.00 0.00 65 1011.9
20260831212555 89 0 0.0 4.0 0.00 0.00 0.00 64 1011.9
20260831212056 89 290 1.0 4.0 0.00 0.00 0.00 64 1011.9
20260831211600 89 238 1.0 3.0 0.00 0.00 0.00 64 1011.9
20260831211057 89 134 1.0 5.0 0.00 0.00 0.00 63 1011.8
20260831210557 89 244 2.0 5.0 0.00 0.00 0.00 65 1011.8
20260831210106 89 262 1.0 4.0 0.00 0.00 0.00 66 1011.7
20260831205556 89 294 1.0 4.0 0.00 0.00 0.00 66 1011.6
20260831205056 89 316 1.0 4.0 0.00 0.00 0.00 66 1011.6
20260831204606 89 288 1.0 5.0 0.00 0.00 0.00 69 1011.7
20260831204056 89 296 1.0 5.0 0.00 0.00 0.00 68 1011.7
20260831203557 89 0 0.0 3.0 0.00 0.00 0.00 69 1011.7
20260831203137 89 288 1.0 3.0 0.00 0.00 0.00 70 1011.8
20260831202557 88 0 1.0 3.0 0.00 0.00 0.00 72 1011.8
20260831202057 87 304 1.0 3.0 0.00 0.00 0.00 71 1011.8
20260831201607 88 300 0.0 3.0 0.00 0.00 0.00 71 1011.8
20260831201057 88 290 1.0 3.0 0.00 0.00 0.00 72 1011.8
20260831200558 88 243 1.0 3.0 0.00 0.00 0.00 73 1011.8
20260831200141 87 15 0.0 3.0 0.00 0.00 0.00 74 1011.7
20260831195557 87 278 0.0 3.0 0.00 0.00 0.00 72 1011.8
20260831195057 87 226 1.0 3.0 0.00 0.00 0.00 74 1011.8
20260831194624 87 0 1.0 3.0 0.00 0.00 0.00 76 1011.8
20260831194056 86 56 0.0 2.0 0.00 0.00 0.00 77 1011.7
20260831193557 85 252 0.0 6.0 0.00 0.00 0.00 77 1011.8
20260831193102 84 74 2.0 6.0 0.00 0.00 0.00 77 1011.8
20260831192559 85 18 1.0 3.0 0.00 0.00 0.00 77 1011.8
20260831192056 85 81 0.0 5.0 0.00 0.00 0.00 77 1011.8
20260831191603 84 41 0.0 5.0 0.00 0.00 0.00 76 1011.7
20260831191057 85 0 1.0 5.0 0.00 0.00 0.00 76 1011.7
20260831190557 85 272 0.0 2.0 0.00 0.00 0.00 77 1011.7
20260831190109 84 101 0.0 2.0 0.00 0.00 0.00 78 1011.8
20260831185557 84 201 0.0 3.0 0.00 0.00 0.00 78 1011.8
20260831185057 84 293 0.0 3.0 0.00 0.00 0.00 78 1011.8
20260831184606 84 269 1.0 4.0 0.00 0.00 0.00 78 1011.9
20260831184056 83 0 1.0 5.0 0.00 0.00 0.00 79 1011.8
20260831183556 84 293 1.0 5.0 0.00 0.00 0.00 78 1011.7
20260831183101 83 304 0.0 2.0 0.00 0.00 0.00 80 1011.9
20260831182557 83 278 0.0 2.0 0.00 0.00 0.00 80 1011.9
20260831182057 83 285 0.0 2.0 0.00 0.00 0.00 80 1011.9
20260831181603 83 250 0.0 2.0 0.00 0.00 0.00 79 1011.9
20260831181057 83 285 0.0 1.0 0.00 0.00 0.00 79 1012.0
20260831180559 83 0 0.0 2.0 0.00 0.00 0.00 80 1012.0
20260831180116 83 0 0.0 3.0 0.00 0.00 0.00 80 1011.9
20260831175556 83 226 1.0 3.0 0.00 0.00 0.00 79 1012.0
20260831175057 83 186 0.0 2.0 0.00 0.00 0.00 79 1012.1
20260831174606 82 312 0.0 2.0 0.00 0.00 0.00 82 1012.0
20260831174057 82 0 1.0 2.0 0.00 0.00 0.00 80 1012.1
20260831173555 82 0 1.0 1.0 0.00 0.00 0.00 81 1012.1
20260831173107 82 250 0.0 1.0 0.00 0.00 0.00 81 1011.9
20260831172557 81 0 0.0 2.0 0.00 0.00 0.00 81 1012.0
20260831172056 81 0 0.0 2.0 0.00 0.00 0.00 81 1012.0
20260831171605 81 0 0.0 1.0 0.00 0.00 0.00 81 1011.9
20260831171053 81 264 0.0 2.0 0.00 0.00 0.00 80 1011.9
20260831170557 81 0 0.0 2.0 0.00 0.00 0.00 81 1012.0
20260831170111 81 51 1.0 2.0 0.00 0.00 0.00 81 1012.0
20260831165554 81 247 0.0 3.0 0.00 0.00 0.00 81 1012.1
20260831165056 81 246 0.0 3.0 0.00 0.00 0.00 80 1012.1
20260831164604 81 4 0.0 3.0 0.00 0.00 0.00 80 1012.1
20260831164053 81 314 0.0 4.0 0.00 0.00 0.00 80 1012.2
20260831163556 81 0 0.0 4.0 0.00 0.00 0.00 81 1012.1
20260831163104 81 176 1.0 4.0 0.00 0.00 0.00 80 1012.1
20260831162556 82 249 0.0 2.0 0.00 0.00 0.00 79 1012.1
20260831162057 81 285 0.0 5.0 0.00 0.00 0.00 80 1012.0
20260831161601 81 228 2.0 5.0 0.00 0.00 0.00 81 1012.1
20260831161053 81 259 0.0 4.0 0.00 0.00 0.00 80 1011.9
20260831160553 81 338 0.0 2.0 0.00 0.00 0.00 82 1011.9
20260831160104 81 198 0.0 3.0 0.00 0.00 0.00 82 1011.9
20260831155557 80 250 1.0 3.0 0.00 0.00 0.00 81 1011.9
20260831155057 81 266 1.0 3.0 0.00 0.00 0.00 81 1012.0
20260831154624 81 232 0.0 4.0 0.00 0.00 0.00 80 1011.8
20260831154058 80 326 1.0 4.0 0.00 0.00 0.00 81 1011.6
20260831153554 80 197 0.0 3.0 0.00 0.00 0.00 81 1011.6
20260831153102 80 309 1.0 3.0 0.00 0.00 0.00 81 1011.5
20260831152557 80 304 0.0 3.0 0.00 0.00 0.00 81 1011.4
20260831152053 80 238 1.0 3.0 0.00 0.00 0.00 82 1011.4
20260831151608 80 302 1.0 2.0 0.00 0.00 0.00 81 1011.3
20260831151058 80 288 1.0 2.0 0.00 0.00 0.00 81 1011.4
20260831150557 80 0 0.0 2.0 0.00 0.00 0.00 83 1011.3
20260831150111 80 329 0.0 2.0 0.00 0.00 0.00 81 1011.1
20260831145553 80 297 0.0 2.0 0.00 0.00 0.00 83 1011.2
20260831145057 80 302 1.0 3.0 0.00 0.00 0.00 82 1011.0
20260831144609 80 278 0.0 5.0 0.00 0.00 0.00 83 1011.0
20260831144056 79 230 2.0 5.0 0.00 0.00 0.00 83 1010.9
20260831143555 79 161 1.0 5.0 0.00 0.00 0.00 83 1010.9
20260831143100 79 249 1.0 5.0 0.00 0.00 0.00 84 1010.8
20260831142558 79 236 1.0 4.0 0.00 0.00 0.00 85 1010.9
20260831142053 78 248 2.0 4.0 0.00 0.00 0.00 85 1010.8
20260831141611 78 236 2.0 7.0 0.00 0.00 0.00 85 1010.7
20260831141053 78 263 2.0 7.0 0.00 0.00 0.00 85 1010.7
20260831140553 78 264 2.0 5.0 0.00 0.00 0.00 86 1010.7
20260831135556 77 225 2.0 6.0 0.00 0.00 0.00 86 1010.4
20260831135057 77 246 1.0 4.0 0.00 0.00 0.00 86 1010.4
20260831134607 77 263 1.0 5.0 0.00 0.00 0.00 86 1010.3
20260831134053 77 266 1.0 5.0 0.00 0.00 0.00 87 1010.4
20260831133553 77 226 1.0 4.0 0.00 0.00 0.00 87 1010.4
20260831133101 77 178 1.0 4.0 0.00 0.00 0.00 88 1010.4
20260831132558 76 249 1.0 4.0 0.00 0.00 0.00 88 1010.3
20260831132056 75 193 1.0 4.0 0.00 0.00 0.00 90 1010.3
20260831131602 75 272 1.0 3.0 0.00 0.00 0.00 90 1010.2
20260831131056 74 229 1.0 3.0 0.00 0.00 0.00 91 1010.0
20260831130553 73 228 1.0 3.0 0.00 0.00 0.00 91 1010.1
20260831130109 73 271 1.0 3.0 0.00 0.00 0.00 92 1009.9
20260831125553 73 125 0.0 5.0 0.00 0.00 0.00 92 1010.0
20260831125056 72 254 1.0 5.0 0.00 0.00 0.00 93 1010.0
20260831124603 72 275 1.0 5.0 0.00 0.00 0.00 93 1009.9
20260831124056 71 266 1.0 3.0 0.00 0.00 0.00 93 1009.9
20260831123556 71 241 1.0 3.0 0.00 0.00 0.00 93 1009.9
20260831123105 71 192 1.0 4.0 0.00 0.00 0.00 93 1009.9
20260831122553 71 270 1.0 5.0 0.00 0.00 0.00 93 1009.8
20260831122053 71 257 2.0 5.0 0.00 0.00 0.00 94 1009.9
20260831121558 70 290 2.0 4.0 0.00 0.00 0.00 94 1009.7
20260831121052 70 167 2.0 4.0 0.00 0.00 0.00 94 1009.7
20260831120555 70 225 1.0 4.0 0.00 0.00 0.00 95 1009.5
20260831120151 69 191 1.0 4.0 0.00 0.00 0.00 95 1009.4
20260831115552 69 215 1.0 4.0 0.00 0.00 0.00 95 1009.4
20260831115055 69 186 1.0 4.0 0.00 0.00 0.00 95 1009.3
20260831114610 69 176 0.0 4.0 0.00 0.00 0.00 95 1009.3
20260831114053 69 262 2.0 4.0 0.00 0.00 0.00 95 1009.3
20260831113553 69 258 2.0 4.0 0.00 0.00 0.00 95 1009.1
20260831113105 69 264 1.0 5.0 0.00 0.00 0.00 95 1009.1
20260831112553 69 186 1.0 5.0 0.00 0.00 0.00 95 1009.1
20260831112056 69 199 2.0 5.0 0.00 0.00 0.00 95 1009.1
20260831111559 69 201 2.0 6.0 0.00 0.00 0.00 95 1009.0
20260831111053 69 198 2.0 6.0 0.00 0.00 0.00 95 1009.0
20260831110553 70 223 1.0 6.0 0.00 0.00 0.00 95 1009.1
20260831110114 70 252 2.0 5.0 0.00 0.00 0.00 95 1009.2
20260831105554 70 266 2.0 5.0 0.00 0.00 0.00 95 1009.1
20260831105057 70 257 1.0 6.0 0.00 0.00 0.00 95 1009.1
20260831104607 70 74 1.0 6.0 0.00 0.00 0.00 95 1009.1
20260831104054 70 226 1.0 5.0 0.00 0.00 0.00 95 1009.0
20260831103553 70 262 2.0 5.0 0.00 0.00 0.00 95 1009.0
20260831103105 70 193 2.0 6.0 0.00 0.00 0.00 95 1009.1
20260831102553 70 255 1.0 6.0 0.00 0.00 0.00 95 1009.2
20260831102056 70 141 1.0 6.0 0.00 0.00 0.00 95 1009.2
20260831101605 70 256 1.0 5.0 0.00 0.00 0.00 95 1009.2
20260831101053 70 205 1.0 5.0 0.00 0.00 0.00 95 1009.3
20260831100552 70 190 2.0 5.0 0.00 0.00 0.00 95 1009.2
20260831100120 70 137 1.0 5.0 0.00 0.00 0.00 95 1009.2
20260831095552 70 0 2.0 5.0 0.00 0.00 0.00 95 1009.2
20260831095052 70 203 2.0 5.0 0.00 0.00 0.00 95 1009.1
20260831094604 70 170 2.0 7.0 0.00 0.00 0.00 95 1009.2
20260831094053 70 221 2.0 7.0 0.00 0.00 0.00 95 1009.3
20260831093553 70 328 2.0 6.0 0.00 0.00 0.00 95 1009.3
20260831093107 70 213 2.0 4.0 0.00 0.00 0.00 95 1009.2
20260831092552 70 122 1.0 5.0 0.00 0.00 0.00 95 1009.1
20260831092059 70 185 1.0 5.0 0.00 0.00 0.00 95 1009.1
20260831091613 70 240 2.0 6.0 0.00 0.00 0.00 95 1009.1
20260831091053 70 198 1.0 6.0 0.00 0.00 0.00 95 1009.1
20260831090627 70 77 1.0 8.0 0.00 0.00 0.00 95 1009.0
20260831090105 70 176 1.0 8.0 0.00 0.00 0.00 95 1009.0
20260831085556 70 236 2.0 5.0 0.00 0.00 0.00 95 1009.0
20260831085059 70 354 2.0 5.0 0.00 0.00 0.00 95 1008.9
20260831084611 70 206 1.0 5.0 0.00 0.00 0.00 95 1009.0
20260831084055 70 182 1.0 5.0 0.00 0.00 0.00 95 1008.9
20260831083552 70 137 1.0 5.0 0.00 0.00 0.00 95 1008.9
20260831083100 70 202 1.0 6.0 0.00 0.00 0.00 94 1008.9
20260831082553 70 261 1.0 6.0 0.00 0.00 0.00 94 1008.8
20260831082053 71 167 1.0 6.0 0.00 0.00 0.00 94 1008.9
20260831081610 70 193 2.0 6.0 0.00 0.00 0.00 94 1008.8
20260831081053 70 121 1.0 6.0 0.00 0.00 0.00 94 1008.7
20260831080552 71 149 2.0 6.0 0.00 0.00 0.00 94 1008.8
20260831080107 71 266 2.0 5.0 0.00 0.00 0.00 94 1008.8
20260831075555 71 250 1.0 4.0 0.00 0.00 0.00 94 1008.7
20260831075053 71 134 1.0 4.0 0.00 0.00 0.00 94 1008.8
20260831074605 71 141 1.0 4.0 0.00 0.00 0.00 94 1008.9
20260831074054 71 194 1.0 4.0 0.00 0.00 0.00 94 1008.9
20260831073553 71 223 1.0 4.0 0.00 0.00 0.00 94 1009.0
20260831073108 70 201 0.0 4.0 0.00 0.00 0.00 94 1009.0
20260831072553 71 189 1.0 4.0 0.00 0.00 0.00 94 1009.1
20260831072056 71 188 2.0 4.0 0.00 0.00 0.00 94 1009.2
20260831071615 71 195 1.0 5.0 0.00 0.00 0.00 93 1009.4
20260831071053 71 215 2.0 5.0 0.00 0.00 0.00 93 1009.4
20260831070553 71 128 1.0 4.0 0.00 0.00 0.00 93 1009.5
20260831070110 71 176 1.0 5.0 0.00 0.00 0.00 93 1009.6
20260831065553 71 101 1.0 5.0 0.00 0.00 0.00 93 1009.4
20260831065053 71 103 2.0 6.0 0.00 0.00 0.00 93 1009.5
20260831064603 71 162 2.0 6.0 0.00 0.00 0.00 93 1009.4
20260831064054 71 156 1.0 5.0 0.00 0.00 0.00 93 1009.3
20260831063552 71 288 2.0 5.0 0.00 0.00 0.00 93 1009.5
20260831063104 71 183 1.0 6.0 0.00 0.00 0.00 93 1009.6
20260831062553 71 155 1.0 6.0 0.00 0.00 0.00 92 1009.5
20260831062054 71 0 1.0 4.0 0.00 0.00 0.00 92 1009.6
20260831061610 71 196 0.0 4.0 0.00 0.00 0.00 92 1009.7
20260831061056 71 183 1.0 4.0 0.00 0.00 0.00 92 1009.9
20260831060553 71 0 0.0 3.0 0.00 0.00 0.00 92 1009.9
20260831060151 71 152 1.0 3.0 0.00 0.00 0.00 92 1009.9
20260831055556 71 0 1.0 4.0 0.00 0.00 0.00 92 1009.8
20260831055053 71 191 1.0 4.0 0.00 0.00 0.00 92 1009.9
20260831054604 71 144 2.0 4.0 0.00 0.00 0.00 92 1010.0
20260831054053 71 186 1.0 4.0 0.00 0.00 0.00 92 1010.0
20260831053553 71 214 1.0 4.0 0.00 0.00 0.00 92 1009.9
20260831053126 71 195 1.0 4.0 0.00 0.00 0.00 92 1009.9
20260831052556 71 137 1.0 4.0 0.00 0.00 0.00 92 1010.0
20260831052056 71 219 1.0 4.0 0.00 0.00 0.00 92 1010.1
20260831051607 71 176 1.0 4.0 0.00 0.00 0.00 91 1010.3
20260831051053 71 198 1.0 4.0 0.00 0.00 0.00 91 1010.2
20260831050552 71 152 1.0 3.0 0.00 0.00 0.00 91 1010.2
20260831050129 71 260 1.0 3.0 0.00 0.00 0.00 91 1010.3
20260831045552 71 195 0.0 3.0 0.00 0.00 0.00 91 1010.1
20260831045055 71 0 0.0 3.0 0.00 0.00 0.00 91 1010.0
20260831044608 71 0 0.0 3.0 0.00 0.00 0.00 91 1010.1
20260831044056 71 205 0.0 3.0 0.00 0.00 0.00 90 1010.1
20260831043552 71 106 0.0 3.0 0.00 0.00 0.00 90 1010.2
20260831043105 71 0 0.0 3.0 0.00 0.00 0.00 90 1010.1
20260831042552 71 167 0.0 4.0 0.00 0.00 0.00 90 1010.1
20260831042052 71 212 1.0 4.0 0.00 0.00 0.00 90 1010.2
20260831041615 71 210 1.0 4.0 0.00 0.00 0.00 90 1010.2
20260831041053 71 141 1.0 4.0 0.00 0.00 0.00 90 1010.3
20260831040553 71 169 1.0 4.0 0.00 0.00 0.00 90 1010.2
20260831040107 71 0 1.0 4.0 0.00 0.00 0.00 90 1010.2
20260831035555 71 126 0.0 2.0 0.00 0.00 0.00 89 1010.1
20260831035052 71 187 0.0 4.0 0.00 0.00 0.00 89 1010.1
20260831034609 71 174 0.0 4.0 0.00 0.00 0.00 89 1010.0
20260831034058 71 51 1.0 4.0 0.00 0.00 0.00 89 1010.2
20260831033555 71 247 1.0 4.0 0.00 0.00 0.00 89 1010.1
20260831033112 71 130 0.0 4.0 0.00 0.00 0.00 89 1010.1
20260831032554 71 127 1.0 5.0 0.00 0.00 0.00 89 1010.1